TimeEST,TemperatureF,Dew PointF,Humidity,Sea Level PressureIn,VisibilityMPH,Wind Direction,Wind SpeedMPH,Gust SpeedMPH,PrecipitationIn,Events,Conditions,WindDirDegrees,DateUTC
12:56 AM,45.0,28.9,53,30.48,10.0,NNE,11.5,-,N/A,,Overcast,20,2013-12-08 05:56:00
1:56 AM,44.1,28.0,53,30.48,10.0,NNE,13.8,18.4,N/A,,Overcast,20,2013-12-08 06:56:00
2:56 AM,44.1,28.0,53,30.47,10.0,North,12.7,-,N/A,,Overcast,10,2013-12-08 07:56:00
3:56 AM,43.0,28.9,58,30.46,10.0,NNE,11.5,21.9,N/A,,Overcast,20,2013-12-08 08:56:00
4:56 AM,43.0,28.9,58,30.45,10.0,North,12.7,20.7,N/A,,Overcast,10,2013-12-08 09:56:00
5:56 AM,43.0,30.9,62,30.46,7.0,North,12.7,-,0.00,Rain,Light Rain,10,2013-12-08 10:56:00
6:56 AM,42.1,33.1,70,30.47,2.5,North,15.0,23.0,0.00,Rain,Light Rain,10,2013-12-08 11:56:00
7:09 AM,41.0,33.1,73,30.46,1.5,NNE,12.7,21.9,0.01,Rain,Light Rain,20,2013-12-08 12:09:00
7:24 AM,41.0,34.0,76,30.45,2.5,NNE,10.4,-,0.01,Rain,Light Rain,20,2013-12-08 12:24:00
7:41 AM,41.0,35.1,79,30.47,3.0,North,9.2,-,0.01,,Haze,10,2013-12-08 12:41:00
7:56 AM,41.0,35.1,79,30.46,1.5,NNE,10.4,-,0.02,Rain,Light Rain,20,2013-12-08 12:56:00
8:13 AM,41.0,35.1,79,30.45,0.8,NNE,10.4,-,0.00,Rain,Light Rain,20,2013-12-08 13:13:00
8:21 AM,41.0,35.1,79,30.47,0.8,NNW,10.4,-,0.01,Rain,Light Rain,340,2013-12-08 13:21:00
8:23 AM,41.0,35.1,79,30.46,1.0,North,10.4,-,0.01,Rain,Light Rain,360,2013-12-08 13:23:00
8:33 AM,41.0,36.0,82,30.46,1.0,North,9.2,-,0.02,Rain,Light Rain,360,2013-12-08 13:33:00
8:47 AM,41.0,35.1,79,30.48,1.2,North,11.5,-,0.02,Rain,Light Rain,350,2013-12-08 13:47:00
8:56 AM,41.0,35.1,79,30.49,0.8,North,10.4,-,0.03,Rain,Light Rain,350,2013-12-08 13:56:00
9:30 AM,41.0,35.1,79,30.46,1.0,North,11.5,-,0.02,Rain,Light Rain,10,2013-12-08 14:30:00
9:56 AM,41.0,35.1,79,30.46,2.5,NNE,12.7,21.9,0.02,,Haze,20,2013-12-08 14:56:00
10:37 AM,41.0,36.0,82,30.45,1.5,North,12.7,-,0.01,Rain,Light Rain,10,2013-12-08 15:37:00
10:56 AM,42.1,36.0,79,30.45,2.0,NNE,13.8,18.4,0.02,Rain,Light Rain,20,2013-12-08 15:56:00
11:06 AM,42.1,37.0,82,30.43,1.2,NNE,11.5,-,0.00,Rain,Light Rain,20,2013-12-08 16:06:00
11:38 AM,43.0,37.9,82,30.42,2.5,North,12.7,-,0.02,Rain,Light Rain,10,2013-12-08 16:38:00
11:56 AM,43.0,37.0,80,30.42,1.8,North,5.8,17.3,0.02,Rain,Light Rain,360,2013-12-08 16:56:00
12:41 PM,43.0,37.9,82,30.37,2.0,NNE,10.4,-,0.01,Rain,Light Rain,20,2013-12-08 17:41:00
12:56 PM,43.0,37.9,82,30.37,2.5,NNE,11.5,-,0.01,,Haze,20,2013-12-08 17:56:00
1:24 PM,44.1,37.9,79,30.38,1.5,North,10.4,-,0.01,Rain,Light Rain,350,2013-12-08 18:24:00
1:44 PM,43.0,37.9,82,30.38,0.5,North,15.0,-,0.11,Rain,Heavy Rain,360,2013-12-08 18:44:00
1:56 PM,43.0,37.9,82,30.38,0.8,North,17.3,24.2,0.15,Rain,Heavy Rain,360,2013-12-08 18:56:00
2:06 PM,43.0,37.0,80,30.38,1.2,North,11.5,21.9,0.02,Rain,Light Rain,360,2013-12-08 19:06:00
2:42 PM,43.0,37.9,82,30.37,2.5,NNE,10.4,-,0.06,Rain,Light Rain,20,2013-12-08 19:42:00
2:52 PM,42.8,37.4,81,30.36,3.0,NNE,10.4,23.0,0.06,Rain,Light Rain,20,2013-12-08 19:52:00
2:56 PM,44.1,37.9,79,30.37,3.0,NNE,11.5,23.0,0.06,Rain,Light Rain,20,2013-12-08 19:56:00
3:52 PM,44.6,37.4,76,30.34,2.0,NNE,11.5,19.6,0.00,Rain,Light Rain,30,2013-12-08 20:52:00
3:56 PM,44.1,37.9,79,30.35,2.5,NNE,10.4,19.6,0.00,Rain,Light Rain,20,2013-12-08 20:56:00
4:04 PM,44.1,37.9,79,30.34,3.0,NNE,12.7,-,0.00,,Haze,30,2013-12-08 21:04:00
4:56 PM,44.1,39.0,82,30.33,4.0,North,8.1,-,0.00,Rain,Light Rain,10,2013-12-08 21:56:00
5:26 PM,45.0,39.9,82,30.35,1.8,North,12.7,-,0.04,Rain,Rain,350,2013-12-08 22:26:00
5:42 PM,45.0,39.0,80,30.35,2.0,North,9.2,-,0.07,Rain,Rain,360,2013-12-08 22:42:00
5:56 PM,44.1,39.0,82,30.35,2.5,North,10.4,-,0.08,Rain,Light Rain,10,2013-12-08 22:56:00
6:05 PM,44.1,39.0,82,30.34,4.0,North,8.1,-,0.00,Rain,Light Rain,350,2013-12-08 23:05:00
6:56 PM,43.0,37.9,82,30.34,6.0,North,8.1,-,0.00,,Haze,350,2013-12-08 23:56:00
7:54 PM,44.6,39.2,81,30.31,5.0,North,9.2,-,N/A,,Haze,350,2013-12-09 00:54:00
7:56 PM,44.1,39.0,82,30.32,5.0,North,8.1,-,N/A,,Haze,360,2013-12-09 00:56:00
8:47 PM,45.0,39.9,82,30.28,2.5,North,5.8,-,N/A,,Haze,360,2013-12-09 01:47:00
8:56 PM,45.0,39.9,82,30.28,2.0,NNW,6.9,-,N/A,,Haze,340,2013-12-09 01:56:00
9:11 PM,45.0,41.0,86,30.26,1.8,North,4.6,-,N/A,,Overcast,360,2013-12-09 02:11:00
9:22 PM,46.0,41.0,83,30.26,2.0,NNW,5.8,-,N/A,,Haze,340,2013-12-09 02:22:00
9:38 PM,46.0,41.0,83,30.26,1.8,NNW,5.8,-,N/A,,Haze,340,2013-12-09 02:38:00
9:56 PM,46.0,42.1,86,30.27,1.5,NW,3.5,-,N/A,,Overcast,310,2013-12-09 02:56:00
10:51 PM,46.4,41.0,81,30.25,0.8,NW,5.8,-,N/A,,Haze,310,2013-12-09 03:51:00
10:56 PM,46.0,42.1,86,30.25,0.8,NW,3.5,-,N/A,,Overcast,310,2013-12-09 03:56:00
11:56 PM,46.9,42.1,83,30.25,0.5,NW,5.8,-,N/A,,Haze,310,2013-12-09 04:56:00